Epoch = 2018 Jan. 2.0 TT T = 2018 Jan. 5.50886 TT Peri. = 12.41625 e = 0.1882315 Node = 26.77566 2000.0 q = 2.5426081 AU Incl. = 1.09967 a = 3.1321835 AU n = 0.17780062 P = 5.54 years
m1 = 16.5 + 5 logΔ + 10.0 log r